STARLINK-36147, 66987

Orbit data source: Space-Track

STARLINK-36147, 66987 is a payload satellite owned by SpaceX/Seattle (US) in LEO that was launched on Mon, 08 Dec 2025 UTC via an FALCON 9 launch vehicle from the Air Force Eastern Test Range (AFETR). Payload-class satellites include a variety of spacecraft equipped with specific instruments for various scientific and technological missions. These include communications satellites like Starlink; space stations such as the ISS; scientific satellites like the Hubble; Earth observation satellites from companies like Planet Labs, Umbra, and HawkEye 360; GPS; miniature CubeSats for education and research; and military/defense satellites.

Loading next visibility...
Identifier
66987, 2025-288AE
Orbit
LEO
Country
Flag of USUS
Related business
Manufacturer
SpaceX/Seattle
Mission
Operational Commercial Communications
Bus & Motor
STARLINK V2MO, Unknown motor
Mass
575 kg wet, ~530 kg dry
Launch date (UTC)
2025-12-08 (5 months ago)
Launch vehicle
FALCON 9
Launch site
Air Force Eastern Test Range (AFETR)
Object type
Payload
Rocket body
Debris
Shape & HBR
Box + 2 Pan, 17.7 m
Radar Cross Section
36.964 m²

Expand to show TLE details & history
Last TLE update: 17 hours ago

TLE from 17 hours ago
0 STARLINK-36147
1 66987U 25288AE  26129.79682372  .00000514  00000-0  28211-4 0  9993
2 66987  43.0039  38.2851 0001589 259.1157 100.9516 15.27572970 24639
Epoch: 2026-05-09T19:07Z
TLE epoch observation values (Epoch: 2026-05-09T19:07:25.569Z)
Latitude
-0.00001°
Longitude
-116.18056°
Altitude
483.053 km
Speed
7.626 km/s
True Right ascension
02h 33m 08s
True Declination
0° 00' 00"
Sunlit
Object was in daylight at epoch
Visualization orbit readout
Latitude
Unknown
Longitude
Unknown
Altitude
Unknown
Speed
Unknown
Apparent Right ascension
Unknown
Apparent Declination
Unknown
Sunlit
N/A
Visualization observer readout
Local Sidereal Time
20:36:20
Azimuth
Unknown
Elevation
Unknown
Doppler factor
Unknown
Orbital elements
Apogee altitude
486.105 km
Perigee altitude
483.924 km
Semi-major axis
6,863.152 km
Eccentricity
0.00016
Inclination
43.0039°
RAAN
38.2851°
Arg. of periapsis
259.1157°
True anomaly
100.96948°
Mean anomaly
100.9516°
Eccentric anomaly
100.96054°
Mean motion
3.81731 °/min
Orbital period
94.31 mins
BSTAR
0.000028211
Loading maneuver chart data...
Computing Atmospheric mass density...
Loading historical data...
Loading historical data...
Loading historical data...
Loading historical data...
Loading historical data...
Loading historical data...
Loading historical data...

Documentation

Showing up to 5 results
|